Year,Month,Day,Hour,Minute,Value (Times are PST for temperature in C)
2016,06,15,00,00,8.10
2016,06,15,00,01,8.10
2016,06,15,00,02,8.10
2016,06,15,00,03,8.10
2016,06,15,00,04,8.10
2016,06,15,00,05,8.00
2016,06,15,00,06,8.00
2016,06,15,00,07,8.00
2016,06,15,00,08,8.00
2016,06,15,00,09,7.90
2016,06,15,00,10,7.90
2016,06,15,00,11,7.90
2016,06,15,00,12,7.90
2016,06,15,00,13,7.90
2016,06,15,00,14,7.90
2016,06,15,00,15,7.80
2016,06,15,00,16,7.80
2016,06,15,00,17,7.80
2016,06,15,00,18,7.80
2016,06,15,00,19,7.80
2016,06,15,00,20,7.80
2016,06,15,00,21,7.70
2016,06,15,00,22,7.70
2016,06,15,00,23,7.70
2016,06,15,00,24,7.70
2016,06,15,00,25,7.60
2016,06,15,00,26,7.60
2016,06,15,00,27,7.60
2016,06,15,00,28,7.60
2016,06,15,00,29,7.60
2016,06,15,00,30,7.50
2016,06,15,00,31,7.50
2016,06,15,00,32,7.40
2016,06,15,00,33,7.40
2016,06,15,00,34,7.40
2016,06,15,00,35,7.40
2016,06,15,00,36,7.40
2016,06,15,00,37,7.40
2016,06,15,00,38,7.40
2016,06,15,00,39,7.40
2016,06,15,00,40,7.40
2016,06,15,00,41,7.40
2016,06,15,00,42,7.40
2016,06,15,00,43,7.40
2016,06,15,00,44,7.40
2016,06,15,00,45,7.40
2016,06,15,00,46,7.40
2016,06,15,00,47,7.40
2016,06,15,00,48,7.40
2016,06,15,00,49,7.40
2016,06,15,00,50,7.40
2016,06,15,00,51,7.40
2016,06,15,00,52,7.40
2016,06,15,00,53,7.30
2016,06,15,00,54,7.30
2016,06,15,00,55,7.30
2016,06,15,00,56,7.30
2016,06,15,00,57,7.30
2016,06,15,00,58,7.30
2016,06,15,00,59,7.30
2016,06,15,01,00,7.30
2016,06,15,01,01,7.30
2016,06,15,01,02,7.30
2016,06,15,01,03,7.30
2016,06,15,01,04,7.30
2016,06,15,01,05,7.30
2016,06,15,01,06,7.30
2016,06,15,01,07,7.30
2016,06,15,01,08,7.20
2016,06,15,01,09,7.20
2016,06,15,01,10,7.20
2016,06,15,01,11,7.20
2016,06,15,01,12,7.20
2016,06,15,01,13,7.10
2016,06,15,01,14,7.10
2016,06,15,01,15,7.10
2016,06,15,01,16,7.10
2016,06,15,01,17,7.10
2016,06,15,01,18,7.10
2016,06,15,01,19,7.10
2016,06,15,01,20,7.10
2016,06,15,01,21,7.10
2016,06,15,01,22,7.10
2016,06,15,01,23,7.10
2016,06,15,01,24,7.10
2016,06,15,01,25,7.10
2016,06,15,01,26,7.10
2016,06,15,01,27,7.10
2016,06,15,01,28,7.10
2016,06,15,01,29,7.10
2016,06,15,01,30,7.10
2016,06,15,01,31,7.10
2016,06,15,01,32,7.10
2016,06,15,01,33,7.10
2016,06,15,01,34,7.10
2016,06,15,01,35,7.10
2016,06,15,01,36,7.10
2016,06,15,01,37,7.10
2016,06,15,01,38,7.10
2016,06,15,01,39,7.10
2016,06,15,01,40,7.10
2016,06,15,01,41,7.20
2016,06,15,01,42,7.20
2016,06,15,01,43,7.20
2016,06,15,01,44,7.30
2016,06,15,01,45,7.30
2016,06,15,01,46,7.30
2016,06,15,01,47,7.30
2016,06,15,01,48,7.30
2016,06,15,01,49,7.30
2016,06,15,01,50,7.30
2016,06,15,01,51,7.30
2016,06,15,01,52,7.40
2016,06,15,01,53,7.40
2016,06,15,01,54,7.40
2016,06,15,01,55,7.40
2016,06,15,01,56,7.40
2016,06,15,01,57,7.40
2016,06,15,01,58,7.40
2016,06,15,01,59,7.50
2016,06,15,02,00,7.50
2016,06,15,02,01,7.50
2016,06,15,02,02,7.50
2016,06,15,02,03,7.50
2016,06,15,02,04,7.50
2016,06,15,02,05,7.50
2016,06,15,02,06,7.60
2016,06,15,02,07,7.60
2016,06,15,02,08,7.50
2016,06,15,02,09,7.50
2016,06,15,02,10,7.50
2016,06,15,02,11,7.50
2016,06,15,02,12,7.60
2016,06,15,02,13,7.60
2016,06,15,02,14,7.50
2016,06,15,02,15,7.60
2016,06,15,02,16,7.60
2016,06,15,02,17,7.60
2016,06,15,02,18,7.60
2016,06,15,02,19,7.60
2016,06,15,02,20,7.60
2016,06,15,02,21,7.60
2016,06,15,02,22,7.60
2016,06,15,02,23,7.60
2016,06,15,02,24,7.60
2016,06,15,02,25,7.60
2016,06,15,02,26,7.60
2016,06,15,02,27,7.50
2016,06,15,02,28,7.50
2016,06,15,02,29,7.50
2016,06,15,02,30,7.50
2016,06,15,02,31,7.50
2016,06,15,02,32,7.50
2016,06,15,02,33,7.50
2016,06,15,02,34,7.50
2016,06,15,02,35,7.50
2016,06,15,02,36,7.50
2016,06,15,02,37,7.40
2016,06,15,02,38,7.40
2016,06,15,02,39,7.40
2016,06,15,02,40,7.50
2016,06,15,02,41,7.50
2016,06,15,02,42,7.60
2016,06,15,02,43,7.60
2016,06,15,02,44,7.60
2016,06,15,02,45,7.60
2016,06,15,02,46,7.60
2016,06,15,02,47,7.60
2016,06,15,02,48,7.60
2016,06,15,02,49,7.60
2016,06,15,02,50,7.70
2016,06,15,02,51,7.70
2016,06,15,02,52,7.70
2016,06,15,02,53,7.70
2016,06,15,02,54,7.70
2016,06,15,02,55,7.70
2016,06,15,02,56,7.70
2016,06,15,02,57,7.70
2016,06,15,02,58,7.70
2016,06,15,02,59,7.70
2016,06,15,03,00,7.60
2016,06,15,03,01,7.60
2016,06,15,03,02,7.60
2016,06,15,03,03,7.70
2016,06,15,03,04,7.60
2016,06,15,03,05,7.70
2016,06,15,03,06,7.60
2016,06,15,03,07,7.60
2016,06,15,03,08,7.60
2016,06,15,03,09,7.60
2016,06,15,03,10,7.60
2016,06,15,03,11,7.70
2016,06,15,03,12,7.70
2016,06,15,03,13,7.70
2016,06,15,03,14,7.70
2016,06,15,03,15,7.70
2016,06,15,03,16,7.70
2016,06,15,03,17,7.70
2016,06,15,03,18,7.70
2016,06,15,03,19,7.70
2016,06,15,03,20,7.70
2016,06,15,03,21,7.70
2016,06,15,03,22,7.70
2016,06,15,03,23,7.70
2016,06,15,03,24,7.60
2016,06,15,03,25,7.60
2016,06,15,03,26,7.60
2016,06,15,03,27,7.60
2016,06,15,03,28,7.60
2016,06,15,03,29,7.60
2016,06,15,03,30,7.60
2016,06,15,03,31,7.60
2016,06,15,03,32,7.60
2016,06,15,03,33,7.60
2016,06,15,03,34,7.60
2016,06,15,03,35,7.60
2016,06,15,03,36,7.50
2016,06,15,03,37,7.50
2016,06,15,03,38,7.50
2016,06,15,03,39,7.50
2016,06,15,03,40,7.50
2016,06,15,03,41,7.50
2016,06,15,03,42,7.40
2016,06,15,03,43,7.40
2016,06,15,03,44,7.40
2016,06,15,03,45,7.40
2016,06,15,03,46,7.30
2016,06,15,03,47,7.30
2016,06,15,03,48,7.30
2016,06,15,03,49,7.20
2016,06,15,03,50,7.20
2016,06,15,03,51,7.10
2016,06,15,03,52,7.10
2016,06,15,03,53,7.10
2016,06,15,03,54,7.00
2016,06,15,03,55,7.00
2016,06,15,03,56,7.00
2016,06,15,03,57,6.90
2016,06,15,03,58,6.90
2016,06,15,03,59,6.90
2016,06,15,04,00,7.00
2016,06,15,04,01,7.00
2016,06,15,04,02,7.10
2016,06,15,04,03,7.10
2016,06,15,04,04,7.10
2016,06,15,04,05,7.10
2016,06,15,04,06,7.10
2016,06,15,04,07,7.10
2016,06,15,04,08,7.10
2016,06,15,04,09,7.10
2016,06,15,04,10,7.20
2016,06,15,04,11,7.20
2016,06,15,04,12,7.20
2016,06,15,04,13,7.20
2016,06,15,04,14,7.20
2016,06,15,04,15,7.20
2016,06,15,04,16,7.20
2016,06,15,04,17,7.20
2016,06,15,04,18,7.20
2016,06,15,04,19,7.20
2016,06,15,04,20,7.20
2016,06,15,04,21,7.20
2016,06,15,04,22,7.20
2016,06,15,04,23,7.20
2016,06,15,04,24,7.20
2016,06,15,04,25,7.20
2016,06,15,04,26,7.20
2016,06,15,04,27,7.20
2016,06,15,04,28,7.20
2016,06,15,04,29,7.20
2016,06,15,04,30,7.20
2016,06,15,04,31,7.30
2016,06,15,04,32,7.30
2016,06,15,04,33,7.30
2016,06,15,04,34,7.30
2016,06,15,04,35,7.30
2016,06,15,04,36,7.30
2016,06,15,04,37,7.30
2016,06,15,04,38,7.30
2016,06,15,04,39,7.30
2016,06,15,04,40,7.40
2016,06,15,04,41,7.40
2016,06,15,04,42,7.40
2016,06,15,04,43,7.40
2016,06,15,04,44,7.30
2016,06,15,04,45,7.30
2016,06,15,04,46,7.30
2016,06,15,04,47,7.30
2016,06,15,04,48,7.30
2016,06,15,04,49,7.30
2016,06,15,04,50,7.30
2016,06,15,04,51,7.30
2016,06,15,04,52,7.30
2016,06,15,04,53,7.30
2016,06,15,04,54,7.30
2016,06,15,04,55,7.30
2016,06,15,04,56,7.20
2016,06,15,04,57,7.20
2016,06,15,04,58,7.20
2016,06,15,04,59,7.20
2016,06,15,05,00,7.20
2016,06,15,05,01,7.20
2016,06,15,05,02,7.20
2016,06,15,05,03,7.20
2016,06,15,05,04,7.20
2016,06,15,05,05,7.20
2016,06,15,05,06,7.10
2016,06,15,05,07,7.10
2016,06,15,05,08,7.10
2016,06,15,05,09,7.10
2016,06,15,05,10,7.10
2016,06,15,05,11,7.10
2016,06,15,05,12,7.10
2016,06,15,05,13,7.10
2016,06,15,05,14,7.10
2016,06,15,05,15,7.10
2016,06,15,05,16,7.00
2016,06,15,05,17,7.00
2016,06,15,05,18,6.90
2016,06,15,05,19,6.90
2016,06,15,05,20,6.90
2016,06,15,05,21,6.90
2016,06,15,05,22,6.90
2016,06,15,05,23,6.80
2016,06,15,05,24,6.80
2016,06,15,05,25,6.80
2016,06,15,05,26,6.80
2016,06,15,05,27,6.80
2016,06,15,05,28,6.80
2016,06,15,05,29,6.80
2016,06,15,05,30,6.80
2016,06,15,05,31,6.80
2016,06,15,05,32,6.80
2016,06,15,05,33,6.80
2016,06,15,05,34,6.80
2016,06,15,05,35,6.80
2016,06,15,05,36,6.80
2016,06,15,05,37,6.80
2016,06,15,05,38,6.80
2016,06,15,05,39,6.80
2016,06,15,05,40,6.80
2016,06,15,05,41,6.80
2016,06,15,05,42,6.80
2016,06,15,05,43,6.80
2016,06,15,05,44,6.80
2016,06,15,05,45,6.80
2016,06,15,05,46,6.80
2016,06,15,05,47,6.80
2016,06,15,05,48,6.80
2016,06,15,05,49,6.80
2016,06,15,05,50,6.80
2016,06,15,05,51,6.80
2016,06,15,05,52,6.80
2016,06,15,05,53,6.80
2016,06,15,05,54,6.80
2016,06,15,05,55,6.90
2016,06,15,05,56,6.90
2016,06,15,05,57,6.90
2016,06,15,05,58,6.90
2016,06,15,05,59,7.00
2016,06,15,06,00,7.00
2016,06,15,06,01,7.00
2016,06,15,06,02,7.00
2016,06,15,06,03,7.10
2016,06,15,06,04,7.10
2016,06,15,06,05,7.10
2016,06,15,06,06,7.10
2016,06,15,06,07,7.10
2016,06,15,06,08,7.20
2016,06,15,06,09,7.20
2016,06,15,06,10,7.20
2016,06,15,06,11,7.20
2016,06,15,06,12,7.30
2016,06,15,06,13,7.30
2016,06,15,06,14,7.30
2016,06,15,06,15,7.30
2016,06,15,06,16,7.40
2016,06,15,06,17,7.40
2016,06,15,06,18,7.40
2016,06,15,06,19,7.40
2016,06,15,06,20,7.40
2016,06,15,06,21,7.50
2016,06,15,06,22,7.50
2016,06,15,06,23,7.50
2016,06,15,06,24,7.50
2016,06,15,06,25,7.50
2016,06,15,06,26,7.60
2016,06,15,06,27,7.60
2016,06,15,06,28,7.60
2016,06,15,06,29,7.60
2016,06,15,06,30,7.60
2016,06,15,06,31,7.60
2016,06,15,06,32,7.70
2016,06,15,06,33,7.70
2016,06,15,06,34,7.70
2016,06,15,06,35,7.70
2016,06,15,06,36,7.70
2016,06,15,06,37,7.80
2016,06,15,06,38,7.80
2016,06,15,06,39,7.80
2016,06,15,06,40,7.80
2016,06,15,06,41,7.90
2016,06,15,06,42,7.90
2016,06,15,06,43,7.90
2016,06,15,06,44,8.00
2016,06,15,06,45,8.00
2016,06,15,06,46,8.10
2016,06,15,06,47,8.10
2016,06,15,06,48,8.10
2016,06,15,06,49,8.10
2016,06,15,06,50,8.10
2016,06,15,06,51,8.20
2016,06,15,06,52,8.20
2016,06,15,06,53,8.20
2016,06,15,06,54,8.20
2016,06,15,06,55,8.20
2016,06,15,06,56,8.30
2016,06,15,06,57,8.30
2016,06,15,06,58,8.40
2016,06,15,06,59,8.40
2016,06,15,07,00,8.50
2016,06,15,07,01,8.50
2016,06,15,07,02,8.60
2016,06,15,07,03,8.70
2016,06,15,07,04,8.70
2016,06,15,07,05,8.80
2016,06,15,07,06,8.90
2016,06,15,07,07,8.90
2016,06,15,07,08,9.00
2016,06,15,07,09,9.00
2016,06,15,07,10,9.10
2016,06,15,07,11,9.10
2016,06,15,07,12,9.20
2016,06,15,07,13,9.20
2016,06,15,07,14,9.20
2016,06,15,07,15,9.30
2016,06,15,07,16,9.30
2016,06,15,07,17,9.30
2016,06,15,07,18,9.40
2016,06,15,07,19,9.50
2016,06,15,07,20,9.50
2016,06,15,07,21,9.60
2016,06,15,07,22,9.60
2016,06,15,07,23,9.60
2016,06,15,07,24,9.60
2016,06,15,07,25,9.60
2016,06,15,07,26,9.60
2016,06,15,07,27,9.60
2016,06,15,07,28,9.60
2016,06,15,07,29,9.60
2016,06,15,07,30,9.70
2016,06,15,07,31,9.70
2016,06,15,07,32,9.70
2016,06,15,07,33,9.80
2016,06,15,07,34,9.80
2016,06,15,07,35,9.90
2016,06,15,07,36,10.00
2016,06,15,07,37,10.10
2016,06,15,07,38,10.20
2016,06,15,07,39,10.30
2016,06,15,07,40,10.30
2016,06,15,07,41,10.40
2016,06,15,07,42,10.50
2016,06,15,07,43,10.50
2016,06,15,07,44,10.60
2016,06,15,07,45,10.70
2016,06,15,07,46,10.80
2016,06,15,07,47,10.80
2016,06,15,07,48,11.00
2016,06,15,07,49,11.00
2016,06,15,07,50,11.20
2016,06,15,07,51,11.30
2016,06,15,07,52,11.40
2016,06,15,07,53,11.40
2016,06,15,07,54,11.40
2016,06,15,07,55,11.50
2016,06,15,07,56,11.50
2016,06,15,07,57,11.50
2016,06,15,07,58,11.40
2016,06,15,07,59,11.30
2016,06,15,08,00,11.30
2016,06,15,08,01,11.20
2016,06,15,08,02,11.20
2016,06,15,08,03,11.20
2016,06,15,08,04,11.20
2016,06,15,08,05,11.20
2016,06,15,08,06,11.20
2016,06,15,08,07,11.10
2016,06,15,08,08,11.10
2016,06,15,08,09,11.00
2016,06,15,08,10,11.00
2016,06,15,08,11,11.10
2016,06,15,08,12,11.20
2016,06,15,08,13,11.20
2016,06,15,08,14,11.40
2016,06,15,08,15,11.40
2016,06,15,08,16,11.50
2016,06,15,08,17,11.60
2016,06,15,08,18,11.60
2016,06,15,08,19,11.60
2016,06,15,08,20,11.60
2016,06,15,08,21,11.70
2016,06,15,08,22,11.70
2016,06,15,08,23,11.70
2016,06,15,08,24,11.70
2016,06,15,08,25,11.70
2016,06,15,08,26,11.70
2016,06,15,08,27,11.70
2016,06,15,08,28,11.70
2016,06,15,08,29,11.80
2016,06,15,08,30,11.80
2016,06,15,08,31,11.80
2016,06,15,08,32,11.80
2016,06,15,08,33,11.70
2016,06,15,08,34,11.70
2016,06,15,08,35,11.70
2016,06,15,08,36,11.80
2016,06,15,08,37,11.70
2016,06,15,08,38,11.70
2016,06,15,08,39,11.70
2016,06,15,08,40,11.70
2016,06,15,08,41,11.70
2016,06,15,08,42,11.80
2016,06,15,08,43,11.80
2016,06,15,08,44,11.90
2016,06,15,08,45,12.00
2016,06,15,08,46,12.10
2016,06,15,08,47,12.20
2016,06,15,08,48,12.30
2016,06,15,08,49,12.40
2016,06,15,08,50,12.40
2016,06,15,08,51,12.40
2016,06,15,08,52,12.50
2016,06,15,08,53,12.60
2016,06,15,08,54,12.80
2016,06,15,08,55,12.90
2016,06,15,08,56,13.00
2016,06,15,08,57,13.10
2016,06,15,08,58,13.20
2016,06,15,08,59,13.30
2016,06,15,09,00,13.20
2016,06,15,09,01,13.00
2016,06,15,09,02,13.00
2016,06,15,09,03,12.90
2016,06,15,09,04,12.90
2016,06,15,09,05,12.90
2016,06,15,09,06,13.00
2016,06,15,09,07,13.10
2016,06,15,09,08,13.10
2016,06,15,09,09,13.20
2016,06,15,09,10,13.20
2016,06,15,09,11,13.30
2016,06,15,09,12,13.40
2016,06,15,09,13,13.40
2016,06,15,09,14,13.40
2016,06,15,09,15,13.30
2016,06,15,09,16,13.30
2016,06,15,09,17,13.30
2016,06,15,09,18,13.30
2016,06,15,09,19,13.30
2016,06,15,09,20,13.30
2016,06,15,09,21,13.30
2016,06,15,09,22,13.30
2016,06,15,09,23,13.30
2016,06,15,09,24,13.30
2016,06,15,09,25,13.40
2016,06,15,09,26,13.40
2016,06,15,09,27,13.40
2016,06,15,09,28,13.50
2016,06,15,09,29,13.50
2016,06,15,09,30,13.40
2016,06,15,09,31,13.40
2016,06,15,09,32,13.40
2016,06,15,09,33,13.40
2016,06,15,09,34,13.50
2016,06,15,09,35,13.50
2016,06,15,09,36,13.50
2016,06,15,09,37,13.50
2016,06,15,09,38,13.60
2016,06,15,09,39,13.60
2016,06,15,09,40,13.70
2016,06,15,09,41,13.70
2016,06,15,09,42,13.70
2016,06,15,09,43,13.80
2016,06,15,09,44,13.90
2016,06,15,09,45,13.90
2016,06,15,09,46,13.90
2016,06,15,09,47,13.90
2016,06,15,09,48,13.90
2016,06,15,09,49,13.90
2016,06,15,09,50,13.80
2016,06,15,09,51,13.90
2016,06,15,09,52,13.90
2016,06,15,09,53,14.10
2016,06,15,09,54,14.20
2016,06,15,09,55,14.30
2016,06,15,09,56,14.40
2016,06,15,09,57,14.30
2016,06,15,09,58,14.20
2016,06,15,09,59,14.20
2016,06,15,10,00,14.30
2016,06,15,10,01,14.30
2016,06,15,10,02,14.40
2016,06,15,10,03,14.50
2016,06,15,10,04,14.50
2016,06,15,10,05,14.40
2016,06,15,10,06,14.40
2016,06,15,10,07,14.30
2016,06,15,10,08,14.30
2016,06,15,10,09,14.20
2016,06,15,10,10,14.20
2016,06,15,10,11,14.20
2016,06,15,10,12,14.20
2016,06,15,10,13,14.10
2016,06,15,10,14,14.00
2016,06,15,10,15,13.90
2016,06,15,10,16,13.90
2016,06,15,10,17,13.80
2016,06,15,10,18,13.80
2016,06,15,10,19,13.80
2016,06,15,10,20,13.80
2016,06,15,10,21,13.70
2016,06,15,10,22,13.70
2016,06,15,10,23,13.80
2016,06,15,10,24,13.80
2016,06,15,10,25,13.70
2016,06,15,10,26,13.60
2016,06,15,10,27,13.50
2016,06,15,10,28,13.50
2016,06,15,10,29,13.60
2016,06,15,10,30,13.60
2016,06,15,10,31,13.60
2016,06,15,10,32,13.60
2016,06,15,10,33,13.70
2016,06,15,10,34,13.70
2016,06,15,10,35,13.80
2016,06,15,10,36,13.80
2016,06,15,10,37,13.70
2016,06,15,10,38,13.50
2016,06,15,10,39,13.30
2016,06,15,10,40,13.00
2016,06,15,10,41,12.70
2016,06,15,10,42,12.50
2016,06,15,10,43,12.30
2016,06,15,10,44,12.10
2016,06,15,10,45,11.90
2016,06,15,10,46,11.70
2016,06,15,10,47,11.60
2016,06,15,10,48,11.50
2016,06,15,10,49,11.50
2016,06,15,10,50,11.40
2016,06,15,10,51,11.30
2016,06,15,10,52,11.30
2016,06,15,10,53,11.30
2016,06,15,10,54,11.20
2016,06,15,10,55,11.20
2016,06,15,10,56,11.10
2016,06,15,10,57,11.10
2016,06,15,10,58,11.00
2016,06,15,10,59,11.00
2016,06,15,11,00,10.90
2016,06,15,11,01,10.90
2016,06,15,11,02,10.90
2016,06,15,11,03,10.90
2016,06,15,11,04,10.90
2016,06,15,11,05,10.90
2016,06,15,11,06,10.80
2016,06,15,11,07,10.80
2016,06,15,11,08,10.80
2016,06,15,11,09,10.70
2016,06,15,11,10,10.70
2016,06,15,11,11,10.60
2016,06,15,11,12,10.60
2016,06,15,11,13,10.50
2016,06,15,11,14,10.40
2016,06,15,11,15,10.40
2016,06,15,11,16,10.30
2016,06,15,11,17,10.30
2016,06,15,11,18,10.20
2016,06,15,11,19,10.20
2016,06,15,11,20,10.10
2016,06,15,11,21,10.10
2016,06,15,11,22,10.10
2016,06,15,11,23,10.00
2016,06,15,11,24,10.00
2016,06,15,11,25,10.00
2016,06,15,11,26,9.90
2016,06,15,11,27,9.90
2016,06,15,11,28,9.80
2016,06,15,11,29,9.80
2016,06,15,11,30,9.80
2016,06,15,11,31,9.80
2016,06,15,11,32,9.80
2016,06,15,11,33,9.80
2016,06,15,11,34,9.80
2016,06,15,11,35,9.70
2016,06,15,11,36,9.70
2016,06,15,11,37,9.70
2016,06,15,11,38,9.60
2016,06,15,11,39,9.50
2016,06,15,11,40,9.50
2016,06,15,11,41,9.50
2016,06,15,11,42,9.40
2016,06,15,11,43,9.40
2016,06,15,11,44,9.40
2016,06,15,11,45,9.30
2016,06,15,11,46,9.30
2016,06,15,11,47,9.30
2016,06,15,11,48,9.30
2016,06,15,11,49,9.30
2016,06,15,11,50,9.30
2016,06,15,11,51,9.30
2016,06,15,11,52,9.30
2016,06,15,11,53,9.30
2016,06,15,11,54,9.40
2016,06,15,11,55,9.40
2016,06,15,11,56,9.50
2016,06,15,11,57,9.60
2016,06,15,11,58,9.60
2016,06,15,11,59,9.70
2016,06,15,12,00,9.70
2016,06,15,12,01,9.70
2016,06,15,12,02,9.70
2016,06,15,12,03,9.70
2016,06,15,12,04,9.70
2016,06,15,12,05,9.70
2016,06,15,12,06,9.70
2016,06,15,12,07,9.60
2016,06,15,12,08,9.60
2016,06,15,12,09,9.60
2016,06,15,12,10,9.60
2016,06,15,12,11,9.60
2016,06,15,12,12,9.70
2016,06,15,12,13,9.70
2016,06,15,12,14,9.70
2016,06,15,12,15,9.70
2016,06,15,12,16,9.70
2016,06,15,12,17,9.70
2016,06,15,12,18,9.80
2016,06,15,12,19,9.80
2016,06,15,12,20,9.80
2016,06,15,12,21,9.90
2016,06,15,12,22,9.90
2016,06,15,12,23,10.00
2016,06,15,12,24,10.10
2016,06,15,12,25,10.20
2016,06,15,12,26,10.20
2016,06,15,12,27,10.20
2016,06,15,12,28,10.30
2016,06,15,12,29,10.40
2016,06,15,12,30,10.50
2016,06,15,12,31,10.60
2016,06,15,12,32,10.70
2016,06,15,12,33,10.80
2016,06,15,12,34,11.00
2016,06,15,12,35,11.10
2016,06,15,12,36,11.20
2016,06,15,12,37,11.20
2016,06,15,12,38,11.30
2016,06,15,12,39,11.40
2016,06,15,12,40,11.50
2016,06,15,12,41,11.60
2016,06,15,12,42,11.60
2016,06,15,12,43,11.70
2016,06,15,12,44,11.70
2016,06,15,12,45,11.80
2016,06,15,12,46,11.80
2016,06,15,12,47,11.90
2016,06,15,12,48,11.90
2016,06,15,12,49,12.00
2016,06,15,12,50,12.10
2016,06,15,12,51,12.10
2016,06,15,12,52,12.10
2016,06,15,12,53,12.20
2016,06,15,12,54,12.30
2016,06,15,12,55,12.40
2016,06,15,12,56,12.50
2016,06,15,12,57,12.70
2016,06,15,12,58,12.70
2016,06,15,12,59,12.80
2016,06,15,13,00,12.90
2016,06,15,13,01,12.90
2016,06,15,13,02,12.90
2016,06,15,13,03,13.00
2016,06,15,13,04,13.10
2016,06,15,13,05,13.10
2016,06,15,13,06,13.30
2016,06,15,13,07,13.40
2016,06,15,13,08,13.40
2016,06,15,13,09,13.40
2016,06,15,13,10,13.40
2016,06,15,13,11,13.30
2016,06,15,13,12,13.40
2016,06,15,13,13,13.50
2016,06,15,13,14,13.60
2016,06,15,13,15,13.70
2016,06,15,13,16,13.80
2016,06,15,13,17,13.90
2016,06,15,13,18,13.90
2016,06,15,13,19,14.00
2016,06,15,13,20,14.00
2016,06,15,13,21,13.90
2016,06,15,13,22,13.90
2016,06,15,13,23,13.80
2016,06,15,13,24,13.80
2016,06,15,13,25,13.90
2016,06,15,13,26,13.90
2016,06,15,13,27,13.90
2016,06,15,13,28,13.90
2016,06,15,13,29,14.00
2016,06,15,13,30,14.00
2016,06,15,13,31,14.10
2016,06,15,13,32,14.10
2016,06,15,13,33,14.00
2016,06,15,13,34,14.00
2016,06,15,13,35,14.00
2016,06,15,13,36,14.10
2016,06,15,13,37,14.20
2016,06,15,13,38,14.30
2016,06,15,13,39,14.50
2016,06,15,13,40,14.60
2016,06,15,13,41,14.80
2016,06,15,13,42,14.90
2016,06,15,13,43,15.00
2016,06,15,13,44,15.10
2016,06,15,13,45,15.20
2016,06,15,13,46,15.30
2016,06,15,13,47,15.40
2016,06,15,13,48,15.60
2016,06,15,13,49,15.80
2016,06,15,13,50,16.00
2016,06,15,13,51,16.20
2016,06,15,13,52,16.30
2016,06,15,13,53,16.30
2016,06,15,13,54,16.30
2016,06,15,13,55,16.10
2016,06,15,13,56,16.00
2016,06,15,13,57,15.80
2016,06,15,13,58,15.80
2016,06,15,13,59,15.80
2016,06,15,14,00,15.80
2016,06,15,14,01,15.80
2016,06,15,14,02,15.80
2016,06,15,14,03,15.80
2016,06,15,14,04,15.80
2016,06,15,14,05,15.70
2016,06,15,14,06,15.60
2016,06,15,14,07,15.50
2016,06,15,14,08,15.50
2016,06,15,14,09,15.60
2016,06,15,14,10,15.60
2016,06,15,14,11,15.60
2016,06,15,14,12,15.70
2016,06,15,14,13,15.70
2016,06,15,14,14,15.80
2016,06,15,14,15,15.80
2016,06,15,14,16,15.60
2016,06,15,14,17,15.50
2016,06,15,14,18,15.30
2016,06,15,14,19,15.10
2016,06,15,14,20,15.00
2016,06,15,14,21,14.90
2016,06,15,14,22,14.80
2016,06,15,14,23,14.70
2016,06,15,14,24,14.70
2016,06,15,14,25,14.50
2016,06,15,14,26,14.40
2016,06,15,14,27,14.40
2016,06,15,14,28,14.30
2016,06,15,14,29,14.30
2016,06,15,14,30,14.30
2016,06,15,14,31,14.30
2016,06,15,14,32,14.30
2016,06,15,14,33,14.30
2016,06,15,14,34,14.30
2016,06,15,14,35,14.30
2016,06,15,14,36,14.30
2016,06,15,14,37,14.40
2016,06,15,14,38,14.40
2016,06,15,14,39,14.40
2016,06,15,14,40,14.50
2016,06,15,14,41,14.60
2016,06,15,14,42,14.60
2016,06,15,14,43,14.60
2016,06,15,14,44,14.60
2016,06,15,14,45,14.70
2016,06,15,14,46,14.60
2016,06,15,14,47,14.60
2016,06,15,14,48,14.60
2016,06,15,14,49,14.60
2016,06,15,14,50,14.60
2016,06,15,14,51,14.60
2016,06,15,14,52,14.70
2016,06,15,14,53,14.70
2016,06,15,14,54,14.80
2016,06,15,14,55,14.80
2016,06,15,14,56,14.80
2016,06,15,14,57,14.80
2016,06,15,14,58,14.70
2016,06,15,14,59,14.70
2016,06,15,15,00,14.70
2016,06,15,15,01,14.70
2016,06,15,15,02,14.70
2016,06,15,15,03,14.70
2016,06,15,15,04,14.80
2016,06,15,15,05,14.80
2016,06,15,15,06,14.80
2016,06,15,15,07,14.80
2016,06,15,15,08,14.80
2016,06,15,15,09,14.80
2016,06,15,15,10,14.80
2016,06,15,15,11,14.80
2016,06,15,15,12,14.90
2016,06,15,15,13,14.80
2016,06,15,15,14,14.80
2016,06,15,15,15,14.70
2016,06,15,15,16,14.50
2016,06,15,15,17,14.30
2016,06,15,15,18,14.00
2016,06,15,15,19,13.80
2016,06,15,15,20,13.60
2016,06,15,15,21,13.40
2016,06,15,15,22,13.30
2016,06,15,15,23,13.20
2016,06,15,15,24,13.10
2016,06,15,15,25,13.10
2016,06,15,15,26,13.10
2016,06,15,15,27,13.00
2016,06,15,15,28,13.00
2016,06,15,15,29,12.90
2016,06,15,15,30,12.90
2016,06,15,15,31,12.90
2016,06,15,15,32,12.90
2016,06,15,15,33,12.80
2016,06,15,15,34,12.80
2016,06,15,15,35,12.80
2016,06,15,15,36,12.70
2016,06,15,15,37,12.70
2016,06,15,15,38,12.60
2016,06,15,15,39,12.60
2016,06,15,15,40,12.50
2016,06,15,15,41,12.50
2016,06,15,15,42,12.60
2016,06,15,15,43,12.50
2016,06,15,15,44,12.50
2016,06,15,15,45,12.50
2016,06,15,15,46,12.40
2016,06,15,15,47,12.40
2016,06,15,15,48,12.30
2016,06,15,15,49,12.30
2016,06,15,15,50,12.30
2016,06,15,15,51,12.40
2016,06,15,15,52,12.40
2016,06,15,15,53,12.40
2016,06,15,15,54,12.40
2016,06,15,15,55,12.40
2016,06,15,15,56,12.40
2016,06,15,15,57,12.40
2016,06,15,15,58,12.50
2016,06,15,15,59,12.50
2016,06,15,16,00,12.60
2016,06,15,16,01,12.60
2016,06,15,16,02,12.60
2016,06,15,16,03,12.60
2016,06,15,16,04,12.60
2016,06,15,16,05,12.60
2016,06,15,16,06,12.60
2016,06,15,16,07,12.60
2016,06,15,16,08,12.70
2016,06,15,16,09,12.70
2016,06,15,16,10,12.70
2016,06,15,16,11,12.70
2016,06,15,16,12,12.70
2016,06,15,16,13,12.70
2016,06,15,16,14,12.70
2016,06,15,16,15,12.70
2016,06,15,16,16,12.70
2016,06,15,16,17,12.70
2016,06,15,16,18,12.70
2016,06,15,16,19,12.60
2016,06,15,16,20,12.60
2016,06,15,16,21,12.60
2016,06,15,16,22,12.60
2016,06,15,16,23,12.60
2016,06,15,16,24,12.50
2016,06,15,16,25,12.50
2016,06,15,16,26,12.50
2016,06,15,16,27,12.50
2016,06,15,16,28,12.40
2016,06,15,16,29,12.40
2016,06,15,16,30,12.30
2016,06,15,16,31,12.30
2016,06,15,16,32,12.30
2016,06,15,16,33,12.30
2016,06,15,16,34,12.40
2016,06,15,16,35,12.40
2016,06,15,16,36,12.40
2016,06,15,16,37,12.40
2016,06,15,16,38,12.50
2016,06,15,16,39,12.50
2016,06,15,16,40,12.60
2016,06,15,16,41,12.60
2016,06,15,16,42,12.50
2016,06,15,16,43,12.50
2016,06,15,16,44,12.40
2016,06,15,16,45,12.40
2016,06,15,16,46,12.30
2016,06,15,16,47,12.30
2016,06,15,16,48,12.30
2016,06,15,16,49,12.30
2016,06,15,16,50,12.20
2016,06,15,16,51,12.20
2016,06,15,16,52,12.20
2016,06,15,16,53,12.20
2016,06,15,16,54,12.30
2016,06,15,16,55,12.30
2016,06,15,16,56,12.30
2016,06,15,16,57,12.30
2016,06,15,16,58,12.40
2016,06,15,16,59,12.40
2016,06,15,17,00,12.40
2016,06,15,17,01,12.50
2016,06,15,17,02,12.50
2016,06,15,17,03,12.50
2016,06,15,17,04,12.50
2016,06,15,17,05,12.60
2016,06,15,17,06,12.60
2016,06,15,17,07,12.60
2016,06,15,17,08,12.60
2016,06,15,17,09,12.60
2016,06,15,17,10,12.60
2016,06,15,17,11,12.70
2016,06,15,17,12,12.70
2016,06,15,17,13,12.80
2016,06,15,17,14,13.00
2016,06,15,17,15,13.10
2016,06,15,17,16,13.30
2016,06,15,17,17,13.40
2016,06,15,17,18,13.50
2016,06,15,17,19,13.70
2016,06,15,17,20,13.80
2016,06,15,17,21,13.90
2016,06,15,17,22,14.00
2016,06,15,17,23,14.10
2016,06,15,17,24,14.10
2016,06,15,17,25,14.10
2016,06,15,17,26,14.20
2016,06,15,17,27,14.30
2016,06,15,17,28,14.40
2016,06,15,17,29,14.50
2016,06,15,17,30,14.70
2016,06,15,17,31,14.80
2016,06,15,17,32,14.80
2016,06,15,17,33,14.80
2016,06,15,17,34,14.80
2016,06,15,17,35,14.80
2016,06,15,17,36,14.80
2016,06,15,17,37,15.00
2016,06,15,17,38,15.10
2016,06,15,17,39,15.30
2016,06,15,17,40,15.50
2016,06,15,17,41,15.70